Location: Cathedral Gorge
(37.8167°N, 114.4167°W)
Time: 12:53:10
(UTC-08:00)

ISS - Visible Passes

Search period start: 14 December 2017 00:00
Search period end: 24 December 2017 00:00
Orbit: 403 x 406 km, 51.6° (Epoch: 15 December)

Date Brightness Start Highest point End Pass type
(mag) Time Alt. Az. Time Alt. Az. Time Alt. Az.
14 Dec -3.7 17:31:26 10° NW 17:34:39 51° NE 17:36:04 28° E visible
15 Dec -1.8 18:15:54 10° WNW 18:18:46 28° SW 18:19:58 22° S visible
16 Dec -3.2 17:23:23 10° WNW 17:26:38 59° SW 17:29:51 10° SE visible
17 Dec -0.3 18:09:33 10° WSW 18:10:27 11° SW 18:11:21 10° SW visible
18 Dec -1.0 17:15:48 10° WNW 17:18:24 22° SW 17:20:59 10° S visible
